Back to catalog

STARLINK-34302

AliveCommunicationsVLEO
NORAD 65216·PAYLOAD·🇺🇸 United States

Launched Aug 14, 2025 from Cape Canaveral Space Force Station

Loading…

Next Passes (next 24 hours)

TLE

FreshSource: CelesTrak SupGP

Epoch: Sep 14, 2026, 14:10 UTC

1 65216C 25176U   26257.59076389 -.00036583  00000+0 -10814-2 0  2579
2 65216  53.1592 351.3413 0001167  75.0530  79.8786 15.34393335    17

Track STARLINK-34302 in real time with AllMySat

Download on the App Store